Starlink 35645

operational
NORAD ID: 66124 Int'l Des: 2025-237 Owner: SPXS Country: US Constellation: starlink
LEOCIRCULAR

Starlink 35645について

説明を読み込み中...

リアルタイム位置

3D地球を読み込み中...

次回通過

高度履歴

Altitude vs Time

uPlot chart will show altitude changes over time

軌道要素

1 66124C 25237L 25298.72201389 -.01167100 00000+0 -19555-2 0 2982
2 66124 53.1551 319.2612 0000747 72.5072 115.6642 16.03302815 11
Epoch: Oct 25, 2025 • Age: 146 hours

現在のステータス

高度 292.1 km
速度 7.73 km/s
衛星直下点 -4.20°S, 39.18°E
打ち上げ日 Oct 22, 2025
運用期間 9 days
タイプ internet

技術仕様

分類 Payload
質量 575.00 kg
乾燥質量 530.00 kg
総質量 575.00 kg
長さ 0.30 m
直径 4.10 m
スパン 29.00 m
形状 Box + pan
製造者 SPXS
バスタイプ Starlink V2MO
フェーズステータス In Orbit
所有者/国 SPXS/US

大規模コンステレーション

Loading constellations...